| time (UTC) | temp F | wind direction | speed MPH | gust MPH | rain 1hr in | rain 24hr in | rain mn in | humidity % | barometer mb |
| 20260506184514 | 52 | 24 | 6.0 | 12.0 | 0.00 | 0.00 | 0.00 | 66 | 1012.2 |
| 20260506183013 | 52 | 19 | 2.0 | 14.0 | 0.00 | 0.00 | 0.00 | 66 | 1012.1 |
| 20260506181512 | 53 | 307 | 4.0 | 12.0 | 0.00 | 0.00 | 0.00 | 65 | 1012.1 |
| 20260506180010 | 53 | 328 | 4.0 | 16.0 | 0.00 | 0.00 | 0.00 | 65 | 1011.8 |
| 20260506174508 | 53 | 352 | 4.0 | 12.0 | 0.00 | 0.00 | 0.00 | 65 | 1011.6 |
| 20260506173007 | 53 | 14 | 5.0 | 13.0 | 0.00 | 0.00 | 0.00 | 64 | 1011.5 |
| 20260506171507 | 54 | 42 | 5.0 | 12.0 | 0.00 | 0.00 | 0.00 | 64 | 1011.5 |
| 20260506170005 | 54 | 30 | 6.0 | 14.0 | 0.00 | 0.00 | 0.00 | 63 | 1011.3 |
| 20260506164517 | 54 | 335 | 7.0 | 13.0 | 0.00 | 0.00 | 0.00 | 63 | 1011.3 |
| 20260506163009 | 55 | 50 | 3.0 | 12.0 | 0.00 | 0.00 | 0.00 | 63 | 1011.3 |
| 20260506161505 | 54 | 354 | 6.0 | 12.0 | 0.00 | 0.00 | 0.00 | 62 | 1011.3 |
| 20260506160003 | 55 | 41 | 7.0 | 14.0 | 0.00 | 0.00 | 0.00 | 62 | 1011.3 |
| 20260506154502 | 55 | 55 | 6.0 | 17.0 | 0.00 | 0.00 | 0.00 | 62 | 1011.4 |
| 20260506153001 | 54 | 77 | 6.0 | 14.0 | 0.00 | 0.00 | 0.00 | 62 | 1011.3 |
| 20260506151605 | 55 | 27 | 7.0 | 14.0 | 0.00 | 0.00 | 0.00 | 60 | 1011.3 |
| 20260506150108 | 55 | 37 | 7.0 | 16.0 | 0.00 | 0.00 | 0.00 | 60 | 1011.3 |
| 20260506144600 | 55 | 31 | 8.0 | 15.0 | 0.00 | 0.00 | 0.00 | 60 | 1011.2 |
| 20260506143059 | 56 | 58 | 4.0 | 14.0 | 0.00 | 0.00 | 0.00 | 62 | 1011.1 |
| 20260506141556 | 55 | 51 | 4.0 | 15.0 | 0.00 | 0.00 | 0.00 | 62 | 1011.1 |
| 20260506140056 | 55 | 329 | 6.0 | 16.0 | 0.00 | 0.00 | 0.00 | 62 | 1011.1 |
| 20260506134555 | 56 | 21 | 5.0 | 15.0 | 0.00 | 0.00 | 0.00 | 61 | 1011.1 |
| 20260506133108 | 56 | 4 | 6.0 | 18.0 | 0.00 | 0.00 | 0.00 | 60 | 1011.1 |
| 20260506131611 | 56 | 345 | 4.0 | 14.0 | 0.00 | 0.00 | 0.00 | 62 | 1011.1 |
| 20260506130052 | 56 | 346 | 5.0 | 13.0 | 0.00 | 0.00 | 0.00 | 61 | 1011.0 |
| 20260506124552 | 55 | 23 | 7.0 | 15.0 | 0.00 | 0.00 | 0.00 | 60 | 1010.9 |
| 20260506123050 | 56 | 333 | 6.0 | 14.0 | 0.00 | 0.00 | 0.00 | 61 | 1010.8 |
| 20260506121555 | 55 | 39 | 10.0 | 16.0 | 0.00 | 0.00 | 0.00 | 61 | 1010.8 |
| 20260506120058 | 55 | 34 | 6.0 | 14.0 | 0.00 | 0.00 | 0.00 | 63 | 1010.7 |
| 20260506114545 | 55 | 66 | 5.0 | 14.0 | 0.00 | 0.00 | 0.00 | 63 | 1010.7 |
| 20260506113044 | 54 | 321 | 4.0 | 14.0 | 0.00 | 0.00 | 0.00 | 64 | 1010.7 |
| 20260506111545 | 54 | 31 | 6.0 | 15.0 | 0.00 | 0.00 | 0.00 | 64 | 1010.6 |
| 20260506110041 | 53 | 19 | 7.0 | 14.0 | 0.00 | 0.00 | 0.00 | 64 | 1010.6 |
| 20260506104548 | 53 | 30 | 6.0 | 13.0 | 0.00 | 0.00 | 0.00 | 63 | 1010.7 |
| 20260506103043 | 52 | 32 | 7.0 | 17.0 | 0.00 | 0.00 | 0.00 | 63 | 1010.7 |
| 20260506101534 | 52 | 47 | 5.0 | 11.0 | 0.00 | 0.00 | 0.00 | 64 | 1010.6 |
| 20260506100034 | 52 | 62 | 4.0 | 16.0 | 0.00 | 0.00 | 0.00 | 63 | 1010.5 |
| 20260506094534 | 52 | 32 | 6.0 | 13.0 | 0.00 | 0.00 | 0.00 | 64 | 1010.4 |
| 20260506093033 | 52 | 337 | 4.0 | 14.0 | 0.00 | 0.00 | 0.00 | 64 | 1010.4 |
| 20260506091532 | 52 | 77 | 6.0 | 13.0 | 0.00 | 0.00 | 0.00 | 63 | 1010.4 |
| 20260506090032 | 52 | 32 | 7.0 | 14.0 | 0.00 | 0.00 | 0.00 | 63 | 1010.2 |
| 20260506084607 | 52 | 43 | 5.0 | 12.0 | 0.00 | 0.00 | 0.00 | 63 | 1010.2 |
| 20260506083030 | 52 | 49 | 7.0 | 13.0 | 0.00 | 0.00 | 0.00 | 64 | 1010.1 |
| 20260506081538 | 52 | 36 | 4.0 | 16.0 | 0.00 | 0.00 | 0.00 | 63 | 1009.9 |
| 20260506073027 | 52 | 43 | 5.0 | 13.0 | 0.00 | 0.00 | 0.00 | 62 | 1009.8 |
| 20260506071526 | 52 | 65 | 7.0 | 14.0 | 0.00 | 0.00 | 0.00 | 62 | 1009.8 |
| 20260506061520 | 51 | 46 | 4.0 | 14.0 | 0.00 | 0.00 | 0.00 | 64 | 1009.6 |
| 20260506044515 | 50 | 6 | 6.0 | 13.0 | 0.00 | 0.00 | 0.00 | 64 | 1009.5 |
| 20260506043013 | 50 | 4 | 6.0 | 17.0 | 0.00 | 0.00 | 0.00 | 64 | 1009.6 |
| 20260506041512 | 50 | 353 | 3.0 | 16.0 | 0.00 | 0.00 | 0.00 | 64 | 1009.6 |
| 20260506040010 | 50 | 51 | 9.0 | 18.0 | 0.00 | 0.00 | 0.00 | 63 | 1009.6 |
| 20260506034509 | 50 | 330 | 6.0 | 18.0 | 0.00 | 0.00 | 0.00 | 63 | 1009.7 |
| 20260506033007 | 50 | 28 | 4.0 | 16.0 | 0.00 | 0.00 | 0.00 | 64 | 1009.8 |
| 20260506031505 | 50 | 18 | 6.0 | 11.0 | 0.00 | 0.00 | 0.00 | 63 | 1009.8 |
| 20260506030002 | 50 | 75 | 8.0 | 16.0 | 0.00 | 0.00 | 0.00 | 64 | 1009.9 |
| 20260506024501 | 50 | 11 | 7.0 | 16.0 | 0.00 | 0.00 | 0.00 | 64 | 1009.9 |
| 20260506023109 | 50 | 15 | 4.0 | 14.0 | 0.00 | 0.00 | 0.00 | 64 | 1009.9 |
| 20260506021617 | 50 | 30 | 3.0 | 17.0 | 0.00 | 0.00 | 0.00 | 65 | 1010.0 |
| 20260506020056 | 50 | 27 | 5.0 | 15.0 | 0.00 | 0.00 | 0.00 | 65 | 1010.0 |
| 20260506014555 | 50 | 72 | 6.0 | 18.0 | 0.00 | 0.00 | 0.00 | 64 | 1010.0 |
| 20260506013106 | 50 | 46 | 7.0 | 13.0 | 0.00 | 0.00 | 0.00 | 65 | 1010.0 |
| 20260506011612 | 50 | 63 | 8.0 | 17.0 | 0.00 | 0.00 | 0.00 | 64 | 1010.2 |
| 20260506010055 | 51 | 72 | 5.0 | 14.0 | 0.00 | 0.00 | 0.00 | 65 | 1010.2 |
| 20260506004547 | 51 | 23 | 6.0 | 13.0 | 0.00 | 0.00 | 0.00 | 65 | 1010.3 |
| 20260506003045 | 51 | 51 | 6.0 | 12.0 | 0.00 | 0.00 | 0.00 | 65 | 1010.4 |
| 20260506001546 | 51 | 32 | 6.0 | 13.0 | 0.00 | 0.00 | 0.00 | 65 | 1010.4 |
| 20260506000044 | 51 | 41 | 5.0 | 14.0 | 0.00 | 0.00 | 0.00 | 63 | 1010.5 |
| 20260505234538 | 51 | 51 | 5.0 | 17.0 | 0.00 | 0.00 | 0.00 | 63 | 1010.7 |
| 20260505233037 | 51 | 39 | 4.0 | 10.0 | 0.00 | 0.00 | 0.00 | 63 | 1010.7 |
| 20260505231547 | 51 | 48 | 5.0 | 11.0 | 0.00 | 0.00 | 0.00 | 63 | 1010.6 |
| 20260505230031 | 51 | 45 | 4.0 | 12.0 | 0.00 | 0.00 | 0.00 | 66 | 1010.7 |
| 20260505224530 | 51 | 84 | 6.0 | 13.0 | 0.00 | 0.00 | 0.00 | 66 | 1010.8 |
| 20260505223028 | 51 | 42 | 6.0 | 14.0 | 0.00 | 0.00 | 0.00 | 66 | 1010.9 |
| 20260505221529 | 51 | 51 | 7.0 | 12.0 | 0.00 | 0.00 | 0.00 | 66 | 1010.8 |
| 20260505220024 | 51 | 360 | 4.0 | 14.0 | 0.00 | 0.00 | 0.00 | 65 | 1010.9 |
| 20260505214524 | 51 | 6 | 6.0 | 17.0 | 0.00 | 0.00 | 0.00 | 66 | 1010.9 |
| 20260505213033 | 51 | 41 | 4.0 | 15.0 | 0.00 | 0.00 | 0.00 | 66 | 1010.9 |
| 20260505211521 | 51 | 63 | 6.0 | 13.0 | 0.00 | 0.00 | 0.00 | 66 | 1010.9 |
| 20260505210020 | 51 | 35 | 7.0 | 15.0 | 0.00 | 0.00 | 0.00 | 66 | 1011.0 |
| 20260505204518 | 51 | 49 | 5.0 | 18.0 | 0.00 | 0.00 | 0.00 | 66 | 1010.8 |
| 20260505203027 | 51 | 57 | 6.0 | 13.0 | 0.00 | 0.00 | 0.00 | 66 | 1010.8 |
| 20260505201527 | 52 | 33 | 7.0 | 18.0 | 0.00 | 0.00 | 0.00 | 66 | 1010.7 |
| 20260505200014 | 52 | 32 | 6.0 | 17.0 | 0.00 | 0.00 | 0.00 | 66 | 1010.7 |
| 20260505194512 | 52 | 57 | 6.0 | 14.0 | 0.00 | 0.00 | 0.00 | 65 | 1010.6 |
| 20260505193011 | 52 | 73 | 8.0 | 18.0 | 0.00 | 0.00 | 0.00 | 65 | 1010.5 |
| 20260505191513 | 52 | 79 | 7.0 | 14.0 | 0.00 | 0.00 | 0.00 | 66 | 1010.6 |
| 20260505190012 | 52 | 27 | 8.0 | 18.0 | 0.00 | 0.00 | 0.00 | 65 | 1010.6 |